Weather Service Report


001 
ASUS41 KPHI 251612
RWRPHI

REGIONAL WEATHER ROUNDUP
NATIONAL WEATHER SERVICE MOUNT HOLLY NJ
1200 PM EDT TUE JUL 25 2017

NOTE:  "FAIR" INDICATES FEW OR NO CLOUDS BELOW 12,000 FEET WITH NO
SIGNIFICANT WEATHER AND/OR OBSTRUCTIONS TO VISIBILITY.

 * = STATION DOES NOT REPORT PRECIPITATION (E.G. RAIN, SNOW, ETC.) 
        OR FOG.

NJZ015>026-251700-
SOUTHERN NEW JERSEY
  
CITY           SKY/WX    TMP DP  RH WIND       PRES   REMARKS
POMONA         CLOUDY    75  68  78 N6        30.07R                  
WILDWOOD*      MOSUNNY   75  66  73 N8        30.07R                  
MILLVILLE      PTSUNNY   75  67  76 N10       30.07R                  
WRIGHTSTOWN    CLOUDY    68  65  88 E3        30.07R                  
MOUNT HOLLY    CLOUDY    70  65  84 CALM      30.08R                  
TRENTON        PTSUNNY   69  63  81 CALM      30.09R                  

$$
NJZ001>014-251700-
NORTHERN NEW JERSEY
  
CITY           SKY/WX    TMP DP  RH WIND       PRES   REMARKS
SUSSEX         CLOUDY    64  61  90 E7        30.10R                  
ANDOVER*         N/A     69  61  75 CALM      30.10R                  
MORRISTOWN     CLOUDY    68  61  77 E3        30.10R FOG              
NEWARK         CLOUDY    67  60  78 N6        30.10R                  
TETERBORO      CLOUDY    66  59  78 NE5       30.09R                  
CALDWELL       CLOUDY    65  61  87 VRB6      30.10S                  
SOMERVILLE     PTSUNNY   71  63  75 CALM      30.07S                  
ALLAIRE*       CLOUDY    67  63  87 NE7       30.10R                  
TOMS RIVER*    CLOUDY    69  64  84 NE8       30.09R                  

$$
PAZ043-044-047-054-055-060>062-066>071-251700-
EASTERN PENNSYLVANIA
  
CITY           SKY/WX    TMP DP  RH WIND       PRES   REMARKS
PHILADELPHIA   PTSUNNY   73  62  68 NE7       30.08R                  
NORTH PHILA    CLOUDY    73  64  73 E7        30.10R                  
BLUE BELL*     PTSUNNY   72  64  78 E3        30.10R                  
DOYLESTOWN     CLOUDY    69  64  84 VRB3      30.09R                  
QUAKERTOWN*    CLOUDY    68  64  88 CALM      30.10R                  
PERKASIE*      CLOUDY    70  64  83 NE3       30.10R                  
POTTSTOWN      CLOUDY    72  65  78 CALM      30.10R                  
LANCASTER      CLOUDY    75  63  66 N7        30.09R                  
COATESVILLE    PTSUNNY   72  64  78 N6        30.11R                  
READING        CLOUDY    74  64  71 N5        30.08R                  
ALLENTOWN      PTSUNNY   73  63  70 E6        30.08R                  
MOUNT POCONO   CLOUDY    63  60  90 NW8       30.12R                  
HAZLETON         N/A     70  61  73 N5        30.15R                  
LEHIGHTON      CLOUDY    70  59  68 NW5       30.09R                  
WILKES BARRE   CLOUDY    68  61  78 NW5       30.11R                  

$$
DEZALL-MDZ008-012-015-019-020-251700-
DELAWARE AND EASTERN MARYLAND
  
CITY           SKY/WX    TMP DP  RH WIND       PRES   REMARKS
WILMINGTON     CLOUDY    77  65  66 NE7       30.08R                  
DOVER          PTSUNNY   75  75 100 N13       30.06R                  
GEORGETOWN     PTSUNNY   79  65  62 NE9       30.07R                  
EASTON         MOSUNNY   79  61  53 N9        30.12R                  
ABERDEEN       MOSUNNY   77  63  61 N9        30.09R                  
PATUXENT       PTSUNNY   78  61  55 N9G18     30.09R                  
OCEAN CITY     CLOUDY    75  69  81 NE10      30.06R                  
WALLOPS ISLAND CLOUDY    79  64  60 N12G17    30.07R                  
CAMBRIDGE      PTSUNNY   77  61  57 NW10      30.08R                  
SALISBURY      MOSUNNY   79  63  57 NW8       30.06R                  

$$
PAZ001-021-NYZ056-072-MDZ011-DCZ001-251700-
OTHER NEARBY LOCATIONS
  
CITY           SKY/WX    TMP DP  RH WIND       PRES   REMARKS
HARRISBURG     CLOUDY    74  59  59 NW10      30.09R                  
STATE COLLEGE  CLOUDY    68  57  68 NW8       30.14R                  
WILLIAMSPORT   CLOUDY    72  59  63 W6        30.09R                  
BINGHAMTON     CLOUDY    62  56  80 N9        30.12R                  
NEW YORK CITY  CLOUDY    65  59  81 VRB5      30.13R                  
BALTIMORE      PTSUNNY   76  62  62 NW10      30.09R                  
WASHINGTON DC  PTSUNNY   78  61  55 N12       30.10R                  

$$
  

Return to Home page


Western Regional Climate Center, wrcc@dri.edu